Weather Roundup
Issued by NWS Chicago, IL

Home | Current Version | Previous Version | Graphics & Text | Print | Product List | Glossary On
Versions: 1 2 3 4 5 6 7 8 9 10 11 12 13 14 15 16 17 18 19 20 21 22 23 24 25 26 27 28 29 30 31 32 33 34 35 36 37 38 39 40 41 42 43 44 45 46 47 48 49 50
288
NZUS59 KLOT 251908
HRRLOT

CHICAGO AREA WEATHER ROUNDUP
NATIONAL WEATHER SERVICE CHICAGO/ROMEOVILLE IL
200 PM CDT TUE APR 25 2017

NOTE: "FAIR" INDICATES FEW OR NO CLOUDS BELOW 12,000 FEET WITH NO
SIGNIFICANT WEATHER AND/OR OBSTRUCTIONS TO VISIBILITY.

* THESE STATIONS ARE NOT UNDER NWS QUALITY CONTROL. THEY ALSO MAY NOT
  REPORT WEATHER SUCH AS PRECIPITATION OR FOG.

ILZ005-006-012>014-019>023-252000-
NORTHEAST ILLINOIS

CITY           SKY/WX    TMP DP  RH WIND       PRES   REMARKS
OHARE          CLOUDY    75  48  38 S16       29.63F
MIDWAY         PTSUNNY   77  48  35 S16G23    29.65S
AURORA         CLOUDY    76  48  37 S16G28    29.62F
LANSING*       MOSUNNY   76  55  47 S10G21    29.66F
JOLIET*        CLOUDY    77  51  39 S14G20    29.62F
WAUKEGAN       MOSUNNY   67  52  58 SE12      29.65F
DUPAGE AIRPORT CLOUDY    74  51  44 S16       29.62F
WHEELING       PTSUNNY   75  50  41 S16G23    29.65F
KANKAKEE*      MOSUNNY   81  52  36 S17       29.65F HX  80
MORRIS*        CLOUDY    78  47  33 S17G24    29.60F
LEWIS AIRPORT* CLOUDY    75  54  48 S16G23    29.62F
NORTHERLY ISL    N/A     63  50  62 E8          N/A
$$

WIZ051-052-058>065-066-070>072-252000-
SOUTHEAST WISCONSIN

CITY           SKY/WX    TMP DP  RH WIND       PRES   REMARKS
MILWAUKEE      PTSUNNY   68  52  56 SE14      29.65S
KENOSHA*       MOSUNNY   69  51  52 SE14      29.65F
RACINE*        CLOUDY    64  49  57 S17       29.67F
WAUKESHA       SUNNY     72  45  37 S12       29.64S
WEST BEND      MOSUNNY   70  50  49 E12       29.64S
$$

INZ001>003-010>013-019-020-252000-
NORTHWEST INDIANA

CITY           SKY/WX    TMP DP  RH WIND       PRES   REMARKS
GARY*          PTSUNNY   79  41  25 S14G24    29.66F
MICHIGAN CITY* NOT AVBL
RENSSELAER*    NOT AVBL
VALPARAISO     MOSUNNY   76  51  41 SE13G22   29.67F
$$

LMZ740>746-252000-
SOUTHERN LAKE MICHIGAN

STATION/POSITION TIME  SKY/WX   TEMP WIND        PRES    VSBY
                                AIR  DIR/SP/G
                 (UTC)          (F)  (DEG/KT/KT) (MB)    (MI)
HARRISON CRIB    1830            60  120/ 19/ 20   N/A
BURNHAM HARBOR   1900            62  100/  4/ 13   N/A
CALUMET HARBOR   1842            74  120/  7/ 11 1003.7F
BURNS HARBOR     1840            76  170/ 10/ 15 1005.1F
MICHIGAN CITY    1840            72  150/ 11/ 15   N/A
$$

ABBREVIATIONS USED IN REMARKS
   TC - TEMPERATURE IN CELSIUS
  WCI - WIND CHILL INDEX
   HX - HEAT INDEX
  VSB - VISIBILITY
$$




USA.gov is the U.S. government's official web portal to all federal, state and local government web resources and services.